Miami, FL

9:51 AM EDT on May 28, 2017 (GMT -0400)
Miami International

Weather History for KMIA - December, 2011

Change the Weather History Date:

Sunday, December 4, 2011

  Actual Average Record
Temperature  
Mean Temperature 76 °F 72 °F  
Max Temperature 80 °F 79 °F 88 °F (1900)
Min Temperature 72 °F 65 °F 42 °F (1939)
Degree Days  
Heating Degree Days 0 0  
Month to date heating degree days 0 0  
Since 1 July heating degree days 0 3  
Cooling Degree Days 11 8  
Month to date cooling degree days 28 32  
Year to date cooling degree days 4759 4404  
Growing Degree Days 25 (Base 50)    
Moisture  
Dew Point 63 °F    
Average Humidity 72    
Maximum Humidity 90    
Minimum Humidity 54    
Precipitation  
Precipitation 0.12 in 0.07 in 3.73 in (2015)
Month to date precipitation 0.12 0.29  
Year to date precipitation 62.86 60.15  
Snow  
Snow 0.00 in - - ()
Month to date snowfall 0.0  
Since 1 July snowfall 0.0  
Snow Depth 0.00 in    
Sea Level Pressure  
Sea Level Pressure 30.15 in    
Wind  
Wind Speed 13 mph (ENE)    
Max Wind Speed 21 mph    
Max Gust Speed 28 mph    
Visibility 10 miles    
Events Rain    
T = Trace of Precipitation, MM = Missing Value Source: NWS Daily Summary

Daily Weather History Graph

Daily Weather History Graph

Search for Another Location

Airport or City:

Trip Planner

Search our weather history database for the weather conditions in past years. The results will help you decide how hot, cold, wet, or windy it might be!

Date:

Astronomy

Dec. 04, 2011 Rise Set
Actual Time 6:52 AM EST 5:29 PM EST
Civil Twilight 6:27 AM EST 5:54 PM EST
Nautical Twilight 5:59 AM EST 6:23 PM EST
Astronomical Twilight 5:31 AM EST 6:51 PM EST
Moon 1:36 PM EST (12/4) 1:42 AM EST (12/4)
Length of Visible Light 11h 27m
Length of Day
10h 37m
Waxing Gibbous, 71% of the Moon is Illuminated
Dec 4
Waxing Gibbous
Dec 10
Full
Dec 17
Last Quarter
Dec 24
New
Jan 1
First Quarter

Hourly Weather History & Observations

Time (EST) Temp. Dew Point Humidity Pressure Visibility Wind Dir Wind Speed Gust Speed Precip Events Conditions
12:53 AM 73.9 °F 61.0 °F 64% 30.19 in 10.0 mi ENE 13.8 mph 18.4 mph N/A   Mostly Cloudy
1:53 AM 73.9 °F 61.0 °F 64% 30.17 in 10.0 mi ENE 13.8 mph 26.5 mph 0.00 in   Mostly Cloudy
2:53 AM 73.9 °F 62.1 °F 66% 30.16 in 10.0 mi ENE 15.0 mph 23.0 mph N/A   Mostly Cloudy
3:53 AM 73.0 °F 62.1 °F 68% 30.16 in 10.0 mi ENE 9.2 mph 19.6 mph N/A   Mostly Cloudy
4:53 AM 73.0 °F 62.1 °F 68% 30.16 in 10.0 mi ENE 16.1 mph 25.3 mph N/A   Mostly Cloudy
5:53 AM 73.0 °F 61.0 °F 66% 30.17 in 10.0 mi ENE 11.5 mph - 0.01 in   Mostly Cloudy
6:53 AM 73.4 °F 62.6 °F 69% 30.18 in 10.0 mi ENE 11.5 mph 23.0 mph N/A   Scattered Clouds
7:53 AM 73.9 °F 59.0 °F 59% 30.19 in 10.0 mi ENE 9.2 mph - N/A   Scattered Clouds
8:53 AM 75.0 °F 62.1 °F 64% 30.20 in 10.0 mi ENE 10.4 mph - N/A   Mostly Cloudy
9:53 AM 77.0 °F 62.1 °F 60% 30.20 in 10.0 mi ENE 15.0 mph 24.2 mph N/A   Scattered Clouds
10:53 AM 77.0 °F 64.0 °F 64% 30.19 in 10.0 mi ENE 16.1 mph 24.2 mph N/A   Mostly Cloudy
11:53 AM 78.8 °F 60.8 °F 54% 30.17 in 10.0 mi East 17.3 mph 24.2 mph N/A   Scattered Clouds
12:53 PM 78.1 °F 61.0 °F 56% 30.14 in 10.0 mi ENE 15.0 mph 24.2 mph N/A   Mostly Cloudy
1:53 PM 78.1 °F 61.0 °F 56% 30.12 in 10.0 mi East 20.7 mph 27.6 mph N/A   Mostly Cloudy
2:53 PM 79.0 °F 63.0 °F 58% 30.10 in 10.0 mi ENE 13.8 mph 21.9 mph N/A   Mostly Cloudy
3:53 PM 77.0 °F 63.0 °F 62% 30.10 in 10.0 mi ENE 13.8 mph - N/A   Mostly Cloudy
4:53 PM 75.9 °F 64.0 °F 67% 30.11 in 10.0 mi ENE 9.2 mph 19.6 mph N/A   Mostly Cloudy
5:53 PM 75.2 °F 64.4 °F 69% 30.11 in 10.0 mi NE 8.1 mph 17.3 mph N/A   Mostly Cloudy
6:53 PM 73.9 °F 66.0 °F 76% 30.12 in 10.0 mi ENE 10.4 mph 18.4 mph 0.02 in Rain Light Rain
7:53 PM 73.9 °F 66.0 °F 76% 30.12 in 10.0 mi ENE 12.7 mph 19.6 mph 0.01 in   Overcast
8:53 PM 71.1 °F 66.9 °F 87% 30.12 in 10.0 mi NE 9.2 mph - 0.00 in Rain Light Rain
9:53 PM 72.0 °F 68.0 °F 87% 30.12 in 8.0 mi East 13.8 mph 18.4 mph 0.06 in Rain Light Rain
10:53 PM 73.0 °F 66.9 °F 81% 30.12 in 10.0 mi East 16.1 mph 21.9 mph 0.00 in   Mostly Cloudy
11:53 PM 73.9 °F 64.9 °F 73% 30.11 in 10.0 mi East 18.4 mph 23.0 mph N/A   Overcast